Tracking 19192 objects as of 21-Jun-2018
HD Live streaming from Space Station
objects crossing your sky now

FENGYUN 1C DEB

Track FENGYUN 1C DEB now!
10-day predictions


NORAD ID: 33733
Int'l Code: 1999-025DHW
Perigee: 807.0 km
Apogee: 961.2 km
Inclination: 99.2 °
Period: 102.5 minutes
Semi major axis: 7255 km
RCS: 0.0057 m2 (small)
Launch date: May 10, 1999
Source: People's Republic of China (PRC)
Launch site: Taiyaun Space Center, China (TSC)

Note: This is SATELLITE DEBRIS
aabbcc
Your satellite tracking list
Your tracking list is empty




NASA's NSSDC Master Catalog

Two Line Element Set (TLE):
1 33733U 99025DHW 18171.47644601 +.00000774 +00000-0 +48559-3 0  9996
2 33733 099.1810 164.7281 0106270 270.8312 244.9195 14.04880809519008
Source of the keplerian elements: AFSPC